ONEWEB-0018, 45434

Orbit data source: Space-Track

ONEWEB-0018, 45434 is a payload satellite owned by One Web (UK) in LEO that was launched on Sat, 21 Mar 2020 UTC via a SOYUZ-2-1B launch vehicle from the Tyuratam Missile And Space Complex (TTMTR). Payload-class satellites include a variety of spacecraft equipped with specific instruments for various scientific and technological missions. These include communications satellites like Starlink; space stations such as the ISS; scientific satellites like the Hubble; Earth observation satellites from companies like Planet Labs, Umbra, and HawkEye 360; GPS; miniature CubeSats for education and research; and military/defense satellites.

Loading next visibility...
Identifier
45434, 2020-020L
Orbit
LEO
Country
Flag of UKUK
Related business
Manufacturer
One Web
Mission
Operational Commercial Communications
Bus & Motor
ARROW, Unknown motor
Mass
148 kg wet, ~140 kg dry
Launch date (UTC)
2020-03-21 (6 years ago)
Launch vehicle
SOYUZ-2-1B
Launch site
Tyuratam Missile And Space Complex (TTMTR)
Object type
Payload
Rocket body
Debris
Shape & HBR
Trap Box + 2 Pan, 6.7 m
Radar Cross Section
3.464 m², Large (>1 m²)

Expand to show TLE details & history
Last TLE update: 14 hours ago

TLE from 14 hours ago
0 ONEWEB-0018
1 45434U 20020L   26254.58572737  .00000069  00000-0  15843-3 0  9996
2 45434  87.8968   3.8878 0002169  95.3005 264.8370 13.11419169313959
Epoch: 2026-09-11T14:03Z
TLE epoch observation values (Epoch: 2026-09-11T14:03:26.844Z)
Latitude
-0.00008°
Longitude
162.41898°
Altitude
1,220.712 km
Speed
7.244 km/s
True Right ascension
00h 15m 33s
True Declination
0° 00' 00"
Sunlit
Object was in full shadow at epoch
Visualization orbit readout
Latitude
Unknown
Longitude
Unknown
Altitude
Unknown
Speed
Unknown
Apparent Right ascension
Unknown
Apparent Declination
Unknown
Sunlit
N/A
Visualization observer readout
Local Sidereal Time
20:06:35
Azimuth
Unknown
Elevation
Unknown
Doppler factor
Unknown
Orbital elements
Apogee altitude
1,216.439 km
Perigee altitude
1,213.145 km
Semi-major axis
7,592.929 km
Eccentricity
0.00022
Inclination
87.8968°
RAAN
3.8878°
Arg. of periapsis
95.3005°
True anomaly
264.81225°
Mean anomaly
264.837°
Eccentric anomaly
264.82462°
Mean motion
3.28042 °/min
Orbital period
109.74 mins
BSTAR
0.00015843
Loading maneuver chart data...
Computing Atmospheric mass density...
Loading historical data...
Loading historical data...
Loading historical data...
Loading historical data...
Loading historical data...
Loading historical data...
Loading historical data...

Documentation

Showing up to 5 results
|